[[{"header":{"parameterUnit":"m.s-1","parameterCategory":2,"la1":30.2991,"la2":30.254,"lo1":-89.0895,"lo2":-89.0444,"dy":0.0017,"dx":0.0017,"nx":28,"ny":28,"refTime":"2025-12-22T03:00:00:Z","depth":"0","parameterNumber":2,"parameterNumberName":"U-component_of_CURRENTS"},"data":[0,0,0,0,0,0,0,0,0,0,0,0,0,0,0,0,0,0,0,0,0,0,0,0,0,0,0,0,0,0,0,0,0,0,0,0,0,0,0,0,0,0,0,0,0,0,0,0,0,0,0,0,0,0,0,0,0,0,-0.2354,-0.2355,0,-0.2364,-0.2364,-0.2364,-0.2316,-0.2315,-0.2314,-0.2313,-0.2231,-0.223,-0.2229,0,0,0,0,0,0,0,0,0,0,0,0,0,-0.2288,-0.2289,-0.2354,-0.2355,-0.2355,-0.2365,-0.2364,-0.2364,-0.2316,-0.2315,-0.2313,-0.2312,-0.2231,-0.223,-0.2229,0,0,0,0,0,0,0,0,0,0,0,0,0,-0.2305,-0.2289,-0.2354,-0.2335,-0.2334,-0.2365,-0.2364,-0.2364,-0.2316,-0.2315,-0.2313,-0.2312,-0.2232,-0.223,-0.2228,-0.2248,0,0,-0.2223,-0.2222,0,0,0,0,0,0,0,0,-0.2304,-0.2307,-0.2338,-0.2337,-0.2335,-0.2341,-0.2311,-0.2322,-0.2317,-0.2319,-0.2313,-0.2311,-0.2263,-0.2259,-0.2259,-0.2244,-0.2241,-0.2223,-0.2222,-0.2221,-0.222,0,0,0,0,0,0,0,-0.2303,-0.2307,-0.2354,-0.2338,-0.2337,-0.2325,-0.2325,-0.2313,-0.2295,-0.2318,-0.2316,-0.2324,-0.2261,-0.2261,-0.2257,-0.2239,-0.2223,-0.2221,-0.222,-0.2219,-0.22,-0.22,0,0,0,0,0,0,-0.2313,-0.2306,-0.2354,-0.2355,-0.232,-0.2328,-0.2328,-0.2337,-0.2297,-0.2291,-0.2325,-0.2322,-0.2265,-0.2259,-0.2254,-0.2247,-0.2221,-0.2219,-0.2218,-0.2199,-0.22,-0.2201,0,0,0,0,0,0,-0.2311,-0.2317,-0.2353,-0.2333,-0.2338,-0.2331,-0.2342,-0.2338,-0.2339,-0.2304,-0.2295,-0.2329,-0.2264,-0.2256,-0.2241,-0.2244,-0.2218,-0.2217,-0.2199,-0.2199,-0.22,-0.2251,0,0,0,0,0,0,-0.2309,-0.2316,-0.2325,-0.2334,-0.2339,-0.2372,-0.2343,-0.234,-0.2348,-0.2343,-0.2304,-0.2295,-0.2262,-0.2244,-0.2239,-0.2241,-0.2215,-0.2198,-0.2199,-0.22,-0.2249,-0.2254,-0.2258,0,0,0,0,0,-0.2307,-0.2325,-0.2325,-0.2331,-0.2352,-0.2373,-0.2374,-0.2361,-0.235,-0.2354,-0.2326,-0.2296,-0.2247,-0.2243,-0.2237,-0.2239,-0.2197,-0.2199,-0.22,-0.2247,-0.2253,-0.2258,0,0,0,0,0,0,-0.2304,-0.2323,-0.2323,-0.2346,-0.236,-0.2366,-0.2373,-0.2371,-0.2356,-0.2347,-0.2308,-0.2298,-0.2282,-0.2261,-0.2258,-0.2237,-0.2216,-0.2216,-0.2253,-0.2259,-0.2263,-0.2263,-0.2214,0,0,0,0,0,-0.231,-0.2323,-0.2343,-0.2362,-0.2371,-0.2376,-0.2383,-0.238,-0.2373,-0.2365,-0.2339,-0.2309,-0.2286,-0.2273,-0.2248,-0.2246,-0.2241,-0.2242,-0.2247,-0.2251,-0.2247,-0.2249,-0.2254,-0.2205,-0.2205,-0.2205,0,0,-0.2313,-0.2328,-0.2334,-0.2362,-0.2369,-0.2389,-0.2375,-0.2393,-0.24,-0.2359,-0.2351,-0.2325,-0.2289,-0.2276,-0.2267,-0.2258,-0.2268,-0.2252,-0.2256,-0.225,-0.2251,-0.2256,-0.226,-0.2206,-0.2206,-0.2205,0,0,-0.2331,-0.2341,-0.2359,-0.2376,-0.2399,-0.2403,-0.2413,-0.2424,-0.2414,-0.2419,-0.2381,-0.2361,-0.2337,-0.2305,-0.2287,-0.2307,-0.2291,-0.2301,-0.2324,-0.2327,-0.2331,-0.2334,-0.2361,-0.2366,-0.2305,-0.2305,-0.2305,0,-0.2337,-0.2361,-0.2369,-0.2395,-0.2408,-0.2413,-0.2435,-0.2437,-0.2438,-0.2434,-0.242,-0.2385,-0.2348,-0.2331,-0.2325,-0.2316,-0.2325,-0.2306,-0.2333,-0.2336,-0.2339,-0.2365,-0.237,-0.2307,-0.2307,-0.2307,-0.2307,0,-0.2369,-0.2389,-0.2403,-0.2432,-0.2448,-0.2468,-0.2478,-0.2484,-0.2479,-0.2478,-0.2466,-0.2427,-0.2402,-0.2391,-0.2358,-0.2356,-0.2361,-0.2339,-0.2321,-0.2347,-0.2373,-0.2378,-0.2311,-0.231,-0.2309,-0.2309,0,0,-0.2383,-0.2417,-0.2421,-0.2434,-0.2466,-0.2481,-0.2499,-0.2513,-0.2522,-0.2517,-0.2524,-0.2479,-0.246,-0.2438,-0.2403,-0.2398,-0.2421,-0.2376,-0.2375,-0.2405,-0.2452,-0.2331,-0.2324,-0.2408,-0.2409,-0.2409,-0.2473,0,-0.2405,-0.2442,-0.2458,-0.2491,-0.2508,-0.252,-0.2536,-0.2549,-0.2551,-0.2559,-0.2531,-0.2517,-0.2479,-0.2463,-0.2455,-0.242,-0.2431,-0.2407,-0.2419,-0.2419,-0.231,-0.2323,-0.2186,-0.2219,-0.2477,-0.2478,-0.2478,0,-0.2434,-0.245,-0.2475,-0.2508,-0.2518,-0.2538,-0.2559,-0.2576,-0.259,-0.2592,-0.2589,-0.2569,-0.2549,-0.2514,-0.25,-0.2489,-0.2473,-0.2458,-0.246,-0.2325,-0.2304,-0.2228,-0.2217,-0.2186,-0.2485,-0.2484,-0.2484,0,-0.242,-0.2466,-0.2475,-0.2487,-0.2523,-0.2535,-0.2556,-0.258,-0.259,-0.2607,-0.2616,-0.2609,-0.2592,-0.258,-0.2533,-0.2522,-0.2529,-0.2513,-0.2405,-0.2399,-0.2269,-0.2248,-0.2222,-0.2517,-0.2516,-0.2516,-0.2516,0,-0.2433,-0.2448,-0.2467,-0.2469,-0.2493,-0.2524,-0.2548,-0.2573,-0.26,-0.261,-0.262,-0.2625,-0.2603,-0.2597,-0.2568,-0.2492,-0.2561,-0.2407,-0.2395,-0.2284,-0.2264,-0.2218,-0.2239,-0.2519,-0.2518,-0.2518,-0.2517,0,-0.2423,-0.2432,-0.2445,-0.2469,-0.2481,-0.2495,-0.2542,-0.2556,-0.2591,-0.2605,-0.2607,-0.2636,-0.261,-0.2594,-0.2574,-0.2511,-0.2411,-0.2433,-0.2309,-0.2278,-0.2095,-0.2123,-0.2091,-0.204,-0.2317,-0.2314,-0.2311,0,-0.2427,-0.2421,-0.243,-0.2428,-0.2438,-0.2465,-0.2481,-0.2535,-0.2547,-0.2602,-0.2599,-0.26,-0.2554,-0.2495,-0.2394,-0.2324,-0.2328,-0.2166,-0.2089,-0.2055,-0.2083,-0.2113,-0.2076,-0.1972,-0.1967,-0.1963,-0.196,0,-0.2416,-0.2401,-0.2393,-0.2385,-0.2392,-0.2416,-0.2443,-0.2455,-0.2505,-0.251,-0.252,-0.2493,-0.2417,-0.2248,-0.2141,-0.209,-0.2078,-0.2075,-0.2074,-0.1823,-0.1824,-0.1778,-0.1996,-0.1923,-0.1927,-0.193,-0.1931,-0.1933,-0.2387,-0.2371,-0.2334,-0.2323,-0.2332,-0.2333,-0.2311,-0.2332,-0.2325,-0.2257,-0.2346,-0.2216,-0.2108,-0.1905,-0.1867,-0.1708,-0.1806,-0.1631,-0.1682,-0.1728,-0.1615,-0.1747,-0.1624,-0.1626,-0.1627,-0.1629,-0.163,0,-0.2335,-0.23,-0.2281,-0.2242,-0.221,-0.2248,-0.2246,-0.2176,-0.2102,-0.2033,-0.1962,-0.18,-0.1621,-0.1561,-0.1413,-0.1337,-0.134,-0.1328,-0.1361,-0.1351,-0.1483,-0.1397,-0.1176,-0.1176,-0.1176,-0.1176,-0.1176,-0.1176,-0.2297,-0.2234,-0.2208,-0.211,-0.2086,-0.1997,-0.1962,-0.1866,-0.1772,-0.1544,-0.1406,-0.1359,-0.1338,-0.1349,-0.1228,-0.1172,-0.1183,-0.113,-0.121,-0.1318,-0.1351,-0.1383,-0.1306,-0.1069,-0.1069,-0.1002,-0.1002,-0.1002]},{"header":{"parameterUnit":"m.s-1","parameterCategory":2,"la1":30.2991,"la2":30.254,"lo1":-89.0895,"lo2":-89.0444,"dy":0.0017,"dx":0.0017,"nx":28,"ny":28,"refTime":"2025-12-22T03:00:00:Z","depth":"0","parameterNumber":3,"parameterNumberName":"V-component_of_CURRENTS"},"data":[0,0,0,0,0,0,0,0,0,0,0,0,0,0,0,0,0,0,0,0,0,0,0,0,0,0,0,0,0,0,0,0,0,0,0,0,0,0,0,0,0,0,0,0,0,0,0,0,0,0,0,0,0,0,0,0,0,0,-0.071,-0.0709,0,-0.0583,-0.0582,-0.058,-0.051,-0.051,-0.051,-0.051,-0.0307,-0.0302,-0.0297,0,0,0,0,0,0,0,0,0,0,0,0,0,-0.0834,-0.0832,-0.071,-0.0708,-0.0707,-0.0584,-0.0582,-0.058,-0.051,-0.051,-0.051,-0.051,-0.0309,-0.0303,-0.0296,0,0,0,0,0,0,0,0,0,0,0,0,0,-0.075,-0.0832,-0.071,-0.0658,-0.0652,-0.0584,-0.0582,-0.0579,-0.051,-0.051,-0.051,-0.051,-0.0311,-0.0303,-0.0295,-0.0249,0,0,-0.0271,-0.0267,0,0,0,0,0,0,0,0,-0.0755,-0.0746,-0.0667,-0.0662,-0.0655,-0.0564,-0.0551,-0.0465,-0.051,-0.0563,-0.051,-0.051,-0.0387,-0.0372,-0.0348,-0.0239,-0.023,-0.027,-0.0265,-0.0262,-0.026,0,0,0,0,0,0,0,-0.0761,-0.075,-0.0659,-0.0666,-0.0658,-0.0622,-0.061,-0.0534,-0.0475,-0.0558,-0.0553,-0.0541,-0.0382,-0.0356,-0.0343,-0.0227,-0.027,-0.0263,-0.0258,-0.0255,-0.0049,-0.0048,0,0,0,0,0,0,-0.0782,-0.0756,-0.0663,-0.0655,-0.0707,-0.062,-0.0607,-0.0592,-0.0477,-0.046,-0.0541,-0.0538,-0.037,-0.0352,-0.0335,-0.026,-0.0262,-0.0254,-0.025,-0.0049,-0.0048,-0.0048,0,0,0,0,0,0,-0.0785,-0.0775,-0.0668,-0.0704,-0.0688,-0.0619,-0.0602,-0.059,-0.0561,-0.0465,-0.0447,-0.0526,-0.0369,-0.0347,-0.0268,-0.0252,-0.0251,-0.0244,-0.005,-0.0049,-0.0048,-0.0116,0,0,0,0,0,0,-0.0789,-0.0776,-0.0775,-0.0705,-0.0687,-0.0627,-0.0602,-0.0587,-0.0554,-0.0549,-0.0445,-0.0427,-0.0367,-0.0281,-0.026,-0.0241,-0.0237,-0.0051,-0.005,-0.0048,-0.0115,-0.0118,-0.012,0,0,0,0,0,-0.0794,-0.0789,-0.0776,-0.0765,-0.0686,-0.0626,-0.0613,-0.0563,-0.0554,-0.0537,-0.0473,-0.043,-0.0258,-0.0273,-0.025,-0.0228,-0.0052,-0.005,-0.0048,-0.0114,-0.0117,-0.012,0,0,0,0,0,0,-0.0843,-0.078,-0.0764,-0.0741,-0.069,-0.0615,-0.0599,-0.0567,-0.0504,-0.0501,-0.0417,-0.0393,-0.0319,-0.0264,-0.0284,-0.0164,-0.0148,-0.0142,-0.0206,-0.0208,-0.0211,-0.0227,-0.0231,0,0,0,0,0,-0.0855,-0.0836,-0.0769,-0.0753,-0.0731,-0.0668,-0.0641,-0.0606,-0.0542,-0.0515,-0.0443,-0.0366,-0.0294,-0.0247,-0.0176,-0.0106,-0.0073,-0.0076,-0.0079,-0.0082,-0.0078,-0.0041,-0.004,-0.0042,-0.0043,-0.0043,0,0,-0.0871,-0.0835,-0.0824,-0.0763,-0.0723,-0.0682,-0.0651,-0.0611,-0.0574,-0.0501,-0.0432,-0.0372,-0.0279,-0.0206,-0.0167,-0.0156,-0.0062,-0.008,-0.0083,-0.0077,-0.0039,-0.0039,-0.0039,-0.0041,-0.0042,-0.0042,0,0,-0.0885,-0.0861,-0.0843,-0.0801,-0.0744,-0.0701,-0.0693,-0.0618,-0.0584,-0.0514,-0.0457,-0.0392,-0.0274,-0.0209,-0.016,-0.0131,-0.0083,-0.0106,-0.0121,-0.0086,-0.0086,-0.0085,-0.0045,-0.0041,-0.0102,-0.0102,-0.0102,0,-0.0908,-0.0871,-0.083,-0.0797,-0.0765,-0.0713,-0.0682,-0.0635,-0.0544,-0.0514,-0.05,-0.0347,-0.0274,-0.0184,-0.0174,-0.0136,-0.0111,-0.0122,-0.0092,-0.0091,-0.0089,-0.0048,-0.0042,-0.0105,-0.0105,-0.0104,-0.0104,0,-0.0894,-0.0867,-0.0854,-0.0795,-0.0759,-0.0726,-0.066,-0.0623,-0.0584,-0.0532,-0.0451,-0.0362,-0.0274,-0.024,-0.0191,-0.0136,-0.012,-0.011,-0.0093,-0.0094,-0.0049,-0.0042,-0.0109,-0.0108,-0.0107,-0.0107,0,0,-0.0935,-0.086,-0.0854,-0.0835,-0.0756,-0.0729,-0.0675,-0.0609,-0.0588,-0.0505,-0.0465,-0.0343,-0.0313,-0.0256,-0.0196,-0.0155,-0.0122,-0.0131,-0.0128,-0.0107,-0.0043,0.0031,0.0047,-0.0116,-0.0115,-0.0115,-0.0018,0,-0.0934,-0.0892,-0.0843,-0.0805,-0.078,-0.072,-0.0679,-0.062,-0.0568,-0.052,-0.0434,-0.0373,-0.0313,-0.0286,-0.0234,-0.0153,-0.0105,-0.0148,-0.0031,-0.0027,0.0026,0.0057,0.0081,0.0175,-0.001,-0.0009,-0.0008,0,-0.0925,-0.0902,-0.0868,-0.0821,-0.0806,-0.0777,-0.0725,-0.068,-0.06,-0.0563,-0.0491,-0.043,-0.0339,-0.0312,-0.0167,-0.0202,-0.0123,-0.0064,-0.0059,0.0041,0.0062,0.015,0.0196,0.0305,0.0003,0.0003,0.0002,0,-0.0976,-0.0918,-0.0902,-0.0879,-0.0815,-0.0799,-0.0768,-0.0697,-0.0676,-0.0599,-0.0588,-0.0467,-0.0423,-0.0311,-0.0156,-0.0175,-0.0009,-0.0021,0.0126,0.0132,0.0196,0.0206,0.035,0.0076,0.0075,0.0075,0.0075,0,-0.0986,-0.0972,-0.0931,-0.092,-0.0923,-0.0856,-0.0848,-0.0802,-0.0748,-0.0738,-0.0625,-0.0588,-0.0427,-0.0304,-0.0172,0.002,-0.0012,0.0139,0.0168,0.0175,0.0182,0.0314,0.035,0.0079,0.0078,0.0077,0.0077,0,-0.103,-0.0994,-0.0988,-0.0949,-0.0944,-0.0951,-0.092,-0.0919,-0.0855,-0.0843,-0.0827,-0.0683,-0.0505,-0.0311,-0.0115,0.0,0.0257,0.0251,0.026,0.0289,0.0506,0.0536,0.0723,0.0797,0.0404,0.0407,0.0409,0,-0.1042,-0.1042,-0.1038,-0.1057,-0.1042,-0.1042,-0.105,-0.0987,-0.0986,-0.0896,-0.09,-0.072,-0.0558,-0.0208,0.0035,0.0307,0.0388,0.0461,0.0438,0.0546,0.06,0.0613,0.0661,0.0491,0.0494,0.0496,0.0498,0,-0.1079,-0.1085,-0.1089,-0.114,-0.1161,-0.118,-0.1181,-0.1194,-0.1126,-0.108,-0.0966,-0.0816,-0.0451,-0.0108,0.0253,0.0404,0.0544,0.0513,0.0619,0.0689,0.0719,0.0794,0.0399,0.0517,0.0515,0.0514,0.0513,0.0512,-0.112,-0.1152,-0.1178,-0.1229,-0.1265,-0.131,-0.1323,-0.129,-0.1262,-0.1136,-0.0994,-0.0691,-0.0243,0.0293,0.0454,0.0771,0.0731,0.0847,0.0876,0.0882,0.0957,0.0619,0.0774,0.0774,0.0773,0.0773,0.0773,0,-0.1177,-0.1213,-0.1265,-0.1331,-0.1402,-0.1387,-0.1407,-0.138,-0.1324,-0.1094,-0.089,-0.0315,0.0127,0.0516,0.0952,0.1113,0.1124,0.119,0.1197,0.123,0.0931,0.0939,0.1143,0.1143,0.1143,0.1143,0.1143,0.1143,-0.1207,-0.1279,-0.1312,-0.1445,-0.149,-0.1547,-0.1553,-0.1455,-0.1277,-0.0868,-0.0475,-0.0134,0.0385,0.1012,0.1381,0.1413,0.153,0.1529,0.1601,0.1368,0.1336,0.1307,0.1324,0.1606,0.1607,0.188,0.1883,0.1885]}],[{"header":{"parameterUnit":"m.s-1","parameterCategory":2,"la1":30.2991,"la2":30.254,"lo1":-89.0895,"lo2":-89.0444,"dy":0.0017,"dx":0.0017,"nx":28,"ny":28,"refTime":"2025-12-22T03:00:00:Z","depth":"2","parameterNumber":2,"parameterNumberName":"U-component_of_CURRENTS"},"data":[0,0,0,0,0,0,0,0,0,0,0,0,0,0,0,0,0,0,0,0,0,0,0,0,0,0,0,0,0,0,0,0,0,0,0,0,0,0,0,0,0,0,0,0,0,0,0,0,0,0,0,0,0,0,0,0,0,0,-0.1542,-0.1542,0,-0.1559,-0.156,-0.156,-0.1572,-0.1572,-0.1572,-0.1572,-0.1563,-0.1562,-0.1562,0,0,0,0,0,0,0,0,0,0,0,0,0,-0.1493,-0.1494,-0.1542,-0.1542,-0.1542,-0.1559,-0.156,-0.156,-0.1572,-0.1572,-0.1572,-0.1572,-0.1563,-0.1562,-0.1562,0,0,0,0,0,0,0,0,0,0,0,0,0,-0.1512,-0.1495,-0.1542,-0.1551,-0.1552,-0.1559,-0.156,-0.156,-0.1571,-0.1572,-0.1572,-0.1572,-0.1563,-0.1562,-0.1562,-0.1551,0,0,-0.156,-0.1559,0,0,0,0,0,0,0,0,-0.1511,-0.1513,-0.155,-0.1551,-0.1552,-0.1565,-0.1539,-0.1556,-0.1571,-0.1563,-0.1572,-0.1573,-0.1561,-0.1561,-0.1562,-0.1551,-0.155,-0.1559,-0.1559,-0.1559,-0.1559,0,0,0,0,0,0,0,-0.151,-0.1513,-0.1547,-0.155,-0.1551,-0.1547,-0.155,-0.1542,-0.1559,-0.1564,-0.1565,-0.1569,-0.1562,-0.1563,-0.1562,-0.155,-0.1559,-0.1559,-0.1558,-0.1558,-0.1548,-0.1548,0,0,0,0,0,0,-0.1511,-0.1512,-0.1547,-0.1548,-0.1533,-0.1547,-0.1551,-0.1559,-0.1559,-0.156,-0.1569,-0.1569,-0.1564,-0.1563,-0.1561,-0.1574,-0.1559,-0.1558,-0.1558,-0.1548,-0.1548,-0.1548,0,0,0,0,0,0,-0.151,-0.1514,-0.1546,-0.1531,-0.1535,-0.1548,-0.1557,-0.1559,-0.1572,-0.1564,-0.1564,-0.1581,-0.1564,-0.1562,-0.1564,-0.1572,-0.1558,-0.1557,-0.1548,-0.1548,-0.1548,-0.1582,0,0,0,0,0,0,-0.1509,-0.1514,-0.1519,-0.1531,-0.1536,-0.1559,-0.1557,-0.156,-0.1574,-0.1575,-0.1574,-0.1573,-0.1564,-0.1566,-0.1564,-0.1571,-0.1557,-0.1548,-0.1548,-0.1548,-0.158,-0.1583,-0.1585,0,0,0,0,0,-0.1507,-0.1514,-0.152,-0.1524,-0.1544,-0.1559,-0.1561,-0.157,-0.1574,-0.1582,-0.158,-0.1573,-0.1566,-0.1565,-0.1563,-0.157,-0.1547,-0.1548,-0.1548,-0.1579,-0.1583,-0.1585,0,0,0,0,0,0,-0.1486,-0.1517,-0.1523,-0.1536,-0.1551,-0.1562,-0.1567,-0.1577,-0.1582,-0.1584,-0.1576,-0.1575,-0.1579,-0.1569,-0.1568,-0.1567,-0.1555,-0.1555,-0.1579,-0.1582,-0.1584,-0.158,-0.1556,0,0,0,0,0,-0.1486,-0.1504,-0.1527,-0.1534,-0.1545,-0.1558,-0.1566,-0.1576,-0.1583,-0.1586,-0.1585,-0.158,-0.1576,-0.1576,-0.1569,-0.1569,-0.1587,-0.1571,-0.1574,-0.1576,-0.157,-0.1603,-0.1608,-0.1549,-0.1549,-0.1549,0,0,-0.1476,-0.1496,-0.1503,-0.1532,-0.1542,-0.1562,-0.1564,-0.1581,-0.1595,-0.1583,-0.1596,-0.159,-0.1578,-0.158,-0.158,-0.1574,-0.1609,-0.1576,-0.1578,-0.1571,-0.1604,-0.161,-0.1615,-0.1549,-0.1549,-0.1549,0,0,-0.1467,-0.1487,-0.1502,-0.1524,-0.1552,-0.1564,-0.1574,-0.1595,-0.1603,-0.1614,-0.1609,-0.1604,-0.1603,-0.1594,-0.1589,-0.1599,-0.1621,-0.1602,-0.1611,-0.1644,-0.1649,-0.1654,-0.1718,-0.1728,-0.1603,-0.1603,-0.1603,0,-0.145,-0.1482,-0.1505,-0.153,-0.1553,-0.157,-0.1595,-0.1603,-0.162,-0.1631,-0.1622,-0.1627,-0.1606,-0.1616,-0.1608,-0.1604,-0.1642,-0.1603,-0.1649,-0.1653,-0.1658,-0.1722,-0.1732,-0.1605,-0.1604,-0.1604,-0.1604,0,-0.1459,-0.149,-0.15,-0.1544,-0.1569,-0.1593,-0.1619,-0.1637,-0.1648,-0.1657,-0.1673,-0.165,-0.165,-0.1644,-0.1621,-0.1642,-0.1669,-0.1651,-0.1645,-0.1666,-0.1732,-0.1743,-0.1607,-0.1606,-0.1606,-0.1605,0,0,-0.1405,-0.1492,-0.1495,-0.1535,-0.1587,-0.1611,-0.1638,-0.1674,-0.1707,-0.1702,-0.1744,-0.1701,-0.1692,-0.1683,-0.1665,-0.1678,-0.1734,-0.1674,-0.1675,-0.1745,-0.1846,-0.1689,-0.1687,-0.1736,-0.1738,-0.1738,-0.1892,0,-0.1403,-0.1465,-0.1508,-0.1566,-0.1604,-0.1647,-0.168,-0.1714,-0.1738,-0.178,-0.176,-0.1778,-0.1708,-0.1715,-0.1712,-0.1734,-0.1758,-0.1696,-0.1807,-0.181,-0.1674,-0.169,-0.1543,-0.165,-0.1903,-0.1904,-0.1906,0,-0.1392,-0.1447,-0.1502,-0.1609,-0.163,-0.1659,-0.1739,-0.177,-0.1823,-0.1844,-0.1851,-0.1852,-0.1853,-0.1799,-0.1836,-0.1808,-0.1816,-0.1832,-0.1839,-0.168,-0.167,-0.1661,-0.166,-0.1924,-0.1922,-0.1921,-0.192,0,-0.1347,-0.1445,-0.1495,-0.1527,-0.1634,-0.1665,-0.1715,-0.1777,-0.183,-0.1879,-0.1932,-0.1932,-0.1954,-0.1954,-0.1916,-0.1906,-0.1978,-0.1977,-0.1858,-0.1852,-0.1734,-0.171,-0.2011,-0.2011,-0.2011,-0.201,-0.201,0,-0.1331,-0.1375,-0.1479,-0.1507,-0.1585,-0.1653,-0.1733,-0.1779,-0.1869,-0.1924,-0.1948,-0.1984,-0.1992,-0.2015,-0.1981,-0.1928,-0.2024,-0.1859,-0.1865,-0.1741,-0.1718,-0.1947,-0.1938,-0.2016,-0.2015,-0.2014,-0.2013,0,-0.1268,-0.1334,-0.1405,-0.1519,-0.1562,-0.1607,-0.1753,-0.182,-0.1891,-0.1971,-0.199,-0.2064,-0.2041,-0.2036,-0.2055,-0.2004,-0.1977,-0.1936,-0.1789,-0.1769,-0.1839,-0.183,-0.187,-0.1865,-0.1861,-0.1858,-0.1855,0,-0.1244,-0.1267,-0.1395,-0.1452,-0.1502,-0.1599,-0.1681,-0.1799,-0.1868,-0.1983,-0.2019,-0.2047,-0.1977,-0.1961,-0.188,-0.1816,-0.1867,-0.1677,-0.1583,-0.1815,-0.1819,-0.1816,-0.1812,-0.1494,-0.1489,-0.1484,-0.1481,0,-0.119,-0.1224,-0.1284,-0.1397,-0.1487,-0.161,-0.1719,-0.1765,-0.1877,-0.1923,-0.1932,-0.1883,-0.1843,-0.1669,-0.159,-0.1536,-0.1663,-0.1579,-0.189,-0.1501,-0.1457,-0.1462,-0.1472,-0.1441,-0.1445,-0.1448,-0.145,-0.1452,-0.1132,-0.1159,-0.123,-0.1333,-0.1456,-0.1552,-0.1566,-0.1658,-0.1692,-0.1675,-0.1738,-0.1609,-0.1592,-0.1337,-0.1267,-0.1249,-0.1358,-0.1325,-0.1342,-0.1363,-0.1239,-0.1185,-0.11,-0.1102,-0.1104,-0.1105,-0.1107,0,-0.1043,-0.1091,-0.1178,-0.1282,-0.1374,-0.1476,-0.1551,-0.1505,-0.1431,-0.1454,-0.1379,-0.1194,-0.1046,-0.1038,-0.094,-0.0924,-0.096,-0.0889,-0.0943,-0.0981,-0.1015,-0.0876,-0.064,-0.0639,-0.0638,-0.0637,0,0,-0.0992,-0.1017,-0.1065,-0.1154,-0.1246,-0.1274,-0.1263,-0.1162,-0.1119,-0.1013,-0.0953,-0.0964,-0.0983,-0.0804,-0.0765,-0.0686,-0.0831,-0.0651,-0.1021,-0.1119,-0.1152,-0.1253,-0.1078,0,0,0,0,0]},{"header":{"parameterUnit":"m.s-1","parameterCategory":2,"la1":30.2991,"la2":30.254,"lo1":-89.0895,"lo2":-89.0444,"dy":0.0017,"dx":0.0017,"nx":28,"ny":28,"refTime":"2025-12-22T03:00:00:Z","depth":"2","parameterNumber":3,"parameterNumberName":"V-component_of_CURRENTS"},"data":[0,0,0,0,0,0,0,0,0,0,0,0,0,0,0,0,0,0,0,0,0,0,0,0,0,0,0,0,0,0,0,0,0,0,0,0,0,0,0,0,0,0,0,0,0,0,0,0,0,0,0,0,0,0,0,0,0,0,0.0121,0.0122,0,0.0175,0.0175,0.0176,0.0191,0.0191,0.019,0.019,0.0204,0.0204,0.0205,0,0,0,0,0,0,0,0,0,0,0,0,0,0.009,0.009,0.0121,0.0122,0.0123,0.0175,0.0175,0.0176,0.0191,0.0191,0.019,0.019,0.0204,0.0204,0.0205,0,0,0,0,0,0,0,0,0,0,0,0,0,0.0119,0.009,0.0121,0.0136,0.0138,0.0175,0.0176,0.0176,0.0191,0.0191,0.019,0.019,0.0203,0.0204,0.0205,0.0221,0,0,0.0208,0.0209,0,0,0,0,0,0,0,0,0.0117,0.012,0.0133,0.0135,0.0137,0.0176,0.0169,0.0189,0.0191,0.0171,0.019,0.0189,0.0191,0.0193,0.0205,0.0222,0.0222,0.0208,0.0209,0.0209,0.021,0,0,0,0,0,0,0,0.0115,0.0119,0.0143,0.0134,0.0136,0.016,0.0163,0.0174,0.0182,0.0173,0.0174,0.018,0.0192,0.0204,0.0205,0.0223,0.0208,0.0209,0.021,0.021,0.0226,0.0226,0,0,0,0,0,0,0.0106,0.0116,0.0141,0.0144,0.0126,0.0161,0.0164,0.0164,0.0183,0.0186,0.018,0.018,0.0202,0.0204,0.0206,0.0202,0.0209,0.021,0.0211,0.0226,0.0226,0.0226,0,0,0,0,0,0,0.0105,0.0107,0.0139,0.0132,0.0137,0.0161,0.0161,0.0165,0.0163,0.0189,0.0191,0.0172,0.0202,0.0204,0.0208,0.0204,0.0211,0.0212,0.0227,0.0226,0.0226,0.021,0,0,0,0,0,0,0.0104,0.0107,0.0094,0.0131,0.0137,0.0149,0.0162,0.0167,0.0169,0.0169,0.0183,0.0185,0.0202,0.0207,0.0209,0.0205,0.0213,0.0227,0.0226,0.0226,0.0211,0.0209,0.0208,0,0,0,0,0,0.0102,0.0086,0.0092,0.0095,0.0122,0.0149,0.0154,0.017,0.0168,0.0166,0.0179,0.0184,0.0206,0.0207,0.021,0.0207,0.0227,0.0226,0.0226,0.0212,0.021,0.0208,0,0,0,0,0,0,0.0064,0.0087,0.0095,0.0085,0.0111,0.0151,0.0143,0.016,0.017,0.016,0.0185,0.0188,0.0191,0.0199,0.02,0.021,0.0216,0.0216,0.0204,0.0202,0.0201,0.0191,0.0213,0,0,0,0,0,0.005,0.0039,0.0078,0.0066,0.0075,0.0106,0.0114,0.0129,0.0148,0.0151,0.0163,0.0175,0.0195,0.0197,0.0211,0.0215,0.023,0.0213,0.0212,0.021,0.0204,0.0227,0.0228,0.0225,0.0225,0.0225,0,0,0.003,0.0041,0.0034,0.0056,0.0071,0.0084,0.0109,0.0114,0.0126,0.015,0.0151,0.0168,0.0195,0.0205,0.0206,0.0208,0.0221,0.021,0.0209,0.0202,0.0227,0.0227,0.0228,0.0224,0.0224,0.0224,0,0,-0.0013,-0.0005,-0.0026,-0.0004,0.0016,0.0048,0.0046,0.0079,0.0091,0.0102,0.0127,0.0144,0.0157,0.0189,0.0206,0.0203,0.0214,0.0196,0.0179,0.0203,0.0203,0.0204,0.0232,0.0235,0.0193,0.0193,0.0193,0,-0.0041,-0.0056,-0.0026,-0.0031,-0.0018,0.0029,0.0026,0.0055,0.0084,0.0095,0.0092,0.0133,0.0157,0.0191,0.0192,0.0202,0.0209,0.0186,0.0201,0.0202,0.0203,0.0232,0.0235,0.0193,0.0193,0.0193,0.0193,0,-0.0086,-0.0097,-0.0107,-0.0094,-0.0069,-0.0069,-0.0013,0.0003,0.0021,0.0052,0.0074,0.0112,0.0132,0.015,0.017,0.019,0.0192,0.0199,0.0206,0.0202,0.0233,0.0237,0.0191,0.0192,0.0192,0.0192,0,0,-0.0153,-0.0144,-0.015,-0.0151,-0.0104,-0.0088,-0.0058,-0.0014,-0.0005,0.0028,0.0037,0.0091,0.01,0.0119,0.015,0.0177,0.0203,0.018,0.0182,0.0208,0.0248,0.0253,0.0258,0.0203,0.0203,0.0203,0.027,0,-0.0202,-0.0235,-0.0202,-0.0211,-0.0215,-0.0148,-0.0121,-0.0072,-0.0035,-0.0015,0.0042,0.0053,0.0094,0.0088,0.0127,0.0177,0.0211,0.0184,0.0247,0.0249,0.0254,0.0262,0.0249,0.0307,0.0274,0.0275,0.0275,0,-0.0253,-0.0268,-0.0299,-0.027,-0.0265,-0.0257,-0.0204,-0.0174,-0.0109,-0.0087,-0.0052,-0.0017,0.0035,0.0055,0.0153,0.0125,0.018,0.0228,0.0232,0.0242,0.0261,0.0303,0.0316,0.0283,0.0282,0.0282,0.0281,0,-0.0315,-0.0325,-0.0357,-0.0349,-0.0311,-0.031,-0.0282,-0.0215,-0.0194,-0.015,-0.015,-0.0073,-0.006,0.0025,0.0133,0.0127,0.0239,0.0247,0.0314,0.0315,0.032,0.0321,0.0314,0.0314,0.0314,0.0314,0.0314,0,-0.0368,-0.039,-0.0402,-0.0417,-0.0443,-0.0386,-0.0393,-0.035,-0.0305,-0.0292,-0.0215,-0.0195,-0.0075,0.001,0.0113,0.0229,0.0227,0.0312,0.0331,0.0315,0.0314,0.0302,0.03,0.0316,0.0316,0.0315,0.0315,0,-0.0419,-0.0432,-0.0469,-0.0472,-0.0478,-0.0498,-0.0474,-0.0472,-0.0425,-0.0412,-0.0411,-0.0299,-0.0192,-0.0047,0.01,0.019,0.0311,0.0356,0.0333,0.0347,0.0376,0.0372,0.0423,0.0424,0.0424,0.0425,0.0425,0,-0.0447,-0.0479,-0.0525,-0.0564,-0.0577,-0.0599,-0.0607,-0.055,-0.0539,-0.0466,-0.0466,-0.0367,-0.0276,-0.0047,0.0133,0.0317,0.033,0.04,0.0393,0.0373,0.0387,0.0382,0.0377,0.0402,0.0402,0.0402,0.0403,0,-0.0489,-0.0518,-0.055,-0.0647,-0.0691,-0.0711,-0.0721,-0.072,-0.0648,-0.0633,-0.0562,-0.0487,-0.0257,-0.005,0.0184,0.0294,0.0368,0.0407,0.0399,0.0368,0.0356,0.0369,0.0364,0.0404,0.0404,0.0404,0.0404,0.0404,-0.0522,-0.0564,-0.0633,-0.0717,-0.0777,-0.0818,-0.0822,-0.081,-0.0795,-0.0718,-0.0621,-0.0465,-0.0265,0.0079,0.0239,0.0395,0.0389,0.0436,0.0435,0.0433,0.041,0.0399,0.0451,0.0451,0.0452,0.0452,0.0452,0,-0.0543,-0.0605,-0.0694,-0.0791,-0.0876,-0.089,-0.0886,-0.0864,-0.0847,-0.0729,-0.0628,-0.0384,-0.014,0.0078,0.0321,0.0446,0.0445,0.0466,0.0444,0.0442,0.044,0.0417,0.046,0.0461,0.0461,0.0461,0,0,-0.0558,-0.0638,-0.069,-0.0854,-0.0938,-0.0997,-0.0992,-0.0932,-0.0823,-0.0724,-0.0572,-0.0348,-0.0098,0.0075,0.0233,0.0357,0.0365,0.0368,0.0348,0.0301,0.0297,0.041,0.0371,0,0,0,0,0]}],[{"header":{"parameterUnit":"m.s-1","parameterCategory":2,"la1":30.2991,"la2":30.254,"lo1":-89.0895,"lo2":-89.0444,"dy":0.0017,"dx":0.0017,"nx":28,"ny":28,"refTime":"2025-12-22T03:00:00:Z","depth":"4","parameterNumber":2,"parameterNumberName":"U-component_of_CURRENTS"},"data":[0,0,0,0,0,0,0,0,0,0,0,0,0,0,0,0,0,0,0,0,0,0,0,0,0,0,0,0,0,0,0,0,0,0,0,0,0,0,0,0,0,0,0,0,0,0,0,0,0,0,0,0,0,0,0,0,0,0,-0.0726,-0.0727,0,-0.077,-0.0771,-0.0771,-0.0797,-0.0797,-0.0797,-0.0797,-0.0833,-0.0833,-0.0834,0,0,0,0,0,0,0,0,0,0,0,0,0,-0.0662,-0.0662,-0.0726,-0.0727,-0.0728,-0.077,-0.0771,-0.0771,-0.0797,-0.0797,-0.0797,-0.0797,-0.0832,-0.0833,-0.0834,0,0,0,0,0,0,0,0,0,0,0,0,0,-0.0695,-0.0663,-0.0726,-0.0747,-0.0749,-0.077,-0.0771,-0.0771,-0.0797,-0.0797,-0.0797,-0.0798,-0.0832,-0.0833,-0.0834,-0.0834,0,0,-0.0838,-0.0838,0,0,0,0,0,0,0,0,-0.0693,-0.0697,-0.0743,-0.0745,-0.0748,-0.078,-0.0761,-0.0792,-0.0796,-0.0777,-0.0797,-0.0798,-0.0815,-0.0817,-0.0823,-0.0836,-0.0837,-0.0838,-0.0838,-0.0839,-0.0839,0,0,0,0,0,0,0,-0.069,-0.0695,-0.0742,-0.0744,-0.0747,-0.0752,-0.0757,-0.0767,-0.0792,-0.0779,-0.0781,-0.0788,-0.0816,-0.0822,-0.0824,-0.0838,-0.0838,-0.0839,-0.0839,-0.084,-0.0895,-0.0896,0,0,0,0,0,0,-0.0688,-0.0693,-0.0741,-0.0744,-0.0722,-0.0753,-0.0759,-0.0768,-0.0792,-0.0797,-0.0788,-0.0789,-0.082,-0.0823,-0.0825,-0.0868,-0.0839,-0.084,-0.084,-0.0894,-0.0895,-0.0896,0,0,0,0,0,0,-0.0686,-0.0692,-0.0739,-0.072,-0.0727,-0.0754,-0.0764,-0.0769,-0.0787,-0.0799,-0.0804,-0.0803,-0.082,-0.0824,-0.0848,-0.0868,-0.084,-0.0841,-0.0893,-0.0894,-0.0896,-0.0927,0,0,0,0,0,0,-0.0684,-0.0691,-0.0698,-0.072,-0.0728,-0.076,-0.0764,-0.0769,-0.0791,-0.0793,-0.0814,-0.0817,-0.0821,-0.0846,-0.0849,-0.0869,-0.0842,-0.0892,-0.0894,-0.0895,-0.0924,-0.0929,-0.0932,0,0,0,0,0,-0.0682,-0.069,-0.0699,-0.0705,-0.0737,-0.076,-0.0765,-0.0784,-0.0791,-0.0802,-0.0818,-0.0817,-0.0858,-0.0848,-0.0851,-0.0871,-0.0891,-0.0893,-0.0895,-0.0923,-0.0928,-0.0932,0,0,0,0,0,0,-0.0666,-0.0694,-0.0704,-0.0721,-0.0743,-0.0765,-0.0776,-0.079,-0.0811,-0.0815,-0.0826,-0.083,-0.0859,-0.086,-0.0848,-0.0892,-0.0875,-0.0877,-0.0895,-0.09,-0.0903,-0.0906,-0.0843,0,0,0,0,0,-0.0666,-0.068,-0.0707,-0.0721,-0.0732,-0.0756,-0.0769,-0.0784,-0.0804,-0.0814,-0.0831,-0.0848,-0.0867,-0.0879,-0.0892,-0.0914,-0.0911,-0.093,-0.0934,-0.0937,-0.0941,-0.0955,-0.096,-0.0902,-0.0902,-0.0902,0,0,-0.0665,-0.0681,-0.069,-0.0719,-0.0736,-0.0757,-0.0765,-0.0788,-0.0812,-0.0814,-0.085,-0.0862,-0.0876,-0.0904,-0.0917,-0.0908,-0.0951,-0.0939,-0.0942,-0.0945,-0.0957,-0.0963,-0.0968,-0.0903,-0.0903,-0.0903,0,0,-0.0661,-0.0682,-0.0691,-0.0711,-0.074,-0.0761,-0.077,-0.0802,-0.0823,-0.0855,-0.0866,-0.089,-0.0918,-0.0935,-0.0945,-0.0977,-0.0971,-0.0983,-0.1007,-0.1021,-0.1025,-0.103,-0.1028,-0.1032,-0.0986,-0.0986,-0.0986,0,-0.0657,-0.0674,-0.0697,-0.0712,-0.0734,-0.0764,-0.0784,-0.0811,-0.0848,-0.087,-0.0871,-0.0925,-0.0933,-0.0973,-0.0986,-0.0987,-0.0988,-0.0988,-0.1026,-0.103,-0.1033,-0.1031,-0.1035,-0.0988,-0.0988,-0.0988,-0.0987,0,-0.0658,-0.0677,-0.0685,-0.0718,-0.0746,-0.0767,-0.081,-0.0843,-0.0872,-0.0898,-0.0947,-0.0963,-0.0995,-0.1004,-0.1006,-0.1044,-0.1034,-0.1028,-0.1013,-0.1041,-0.1036,-0.104,-0.099,-0.099,-0.0989,-0.0989,0,0,-0.0631,-0.0676,-0.0679,-0.0699,-0.0753,-0.0775,-0.0826,-0.0878,-0.0914,-0.0951,-0.0995,-0.103,-0.1041,-0.1054,-0.1063,-0.1078,-0.1102,-0.1068,-0.1067,-0.1064,-0.1124,-0.1078,-0.1077,-0.1105,-0.1106,-0.1106,-0.1108,0,-0.0624,-0.0644,-0.0681,-0.0719,-0.0736,-0.0795,-0.0844,-0.0898,-0.0942,-0.0992,-0.1025,-0.1062,-0.1061,-0.1077,-0.1096,-0.1103,-0.1114,-0.1101,-0.1099,-0.1099,-0.1053,-0.108,-0.1109,-0.1111,-0.1111,-0.1112,-0.1112,0,-0.0609,-0.0627,-0.0651,-0.0723,-0.074,-0.0775,-0.086,-0.091,-0.0989,-0.1025,-0.1071,-0.1094,-0.1133,-0.112,-0.115,-0.1143,-0.1138,-0.1137,-0.1137,-0.1086,-0.1059,-0.1078,-0.1118,-0.1118,-0.1117,-0.1117,-0.1117,0,-0.0561,-0.0613,-0.0631,-0.0651,-0.0731,-0.0768,-0.0826,-0.0912,-0.0964,-0.1041,-0.1078,-0.1125,-0.1151,-0.1161,-0.117,-0.116,-0.1194,-0.1174,-0.1126,-0.1122,-0.1149,-0.1144,-0.119,-0.119,-0.119,-0.119,-0.119,0,-0.0533,-0.0554,-0.0608,-0.0615,-0.0655,-0.0738,-0.0805,-0.0864,-0.0964,-0.1022,-0.1085,-0.1124,-0.1163,-0.1191,-0.1185,-0.1172,-0.1205,-0.1135,-0.1125,-0.1161,-0.1158,-0.1151,-0.1146,-0.119,-0.119,-0.119,-0.119,0,-0.0478,-0.0511,-0.0528,-0.0599,-0.0625,-0.0652,-0.0779,-0.0833,-0.0934,-0.1011,-0.1036,-0.1126,-0.1161,-0.1195,-0.1212,-0.1183,-0.1177,-0.1162,-0.1202,-0.1193,-0.1087,-0.1084,-0.1094,-0.1093,-0.1092,-0.1091,-0.109,0,-0.0453,-0.0451,-0.0488,-0.0489,-0.0519,-0.0589,-0.0646,-0.0786,-0.0853,-0.1002,-0.1029,-0.1102,-0.115,-0.1138,-0.1176,-0.1171,-0.1159,-0.1142,-0.111,-0.1091,-0.108,-0.1079,-0.1078,-0.1088,-0.1087,-0.1087,-0.1087,0,-0.0404,-0.0407,-0.0412,-0.0396,-0.0433,-0.0507,-0.0604,-0.0656,-0.0828,-0.0917,-0.0993,-0.1029,-0.1076,-0.1096,-0.1112,-0.1104,-0.1146,-0.1128,-0.113,-0.11,-0.1083,-0.1072,-0.1073,-0.1082,-0.1083,-0.1083,-0.1083,0,-0.0359,-0.0336,-0.032,-0.0308,-0.0337,-0.0406,-0.0491,-0.0599,-0.0695,-0.0879,-0.0892,-0.0985,-0.1059,-0.1062,-0.1075,-0.1074,-0.1048,-0.1003,-0.1011,-0.1016,-0.0994,-0.0961,-0.0918,0,0,0,0,0,-0.032,-0.0281,-0.0246,-0.0229,-0.025,-0.0286,-0.0448,-0.0558,-0.0728,-0.0753,-0.0833,-0.0877,-0.0923,-0.0968,-0.0948,-0.1034,-0.1044,-0.1007,-0.0993,-0.1057,-0.1063,-0.1046,0,0,0,0,0,0,-0.0288,-0.0253,-0.0215,-0.0157,-0.0135,-0.0195,-0.0306,-0.0441,-0.0491,-0.0645,-0.0675,-0.0776,-0.0829,-0.088,-0.0895,-0.0913,-0.0884,-0.1066,-0.1064,-0.1055,-0.1059,-0.1063,-0.1048,0,0,0,0,0]},{"header":{"parameterUnit":"m.s-1","parameterCategory":2,"la1":30.2991,"la2":30.254,"lo1":-89.0895,"lo2":-89.0444,"dy":0.0017,"dx":0.0017,"nx":28,"ny":28,"refTime":"2025-12-22T03:00:00:Z","depth":"4","parameterNumber":3,"parameterNumberName":"V-component_of_CURRENTS"},"data":[0,0,0,0,0,0,0,0,0,0,0,0,0,0,0,0,0,0,0,0,0,0,0,0,0,0,0,0,0,0,0,0,0,0,0,0,0,0,0,0,0,0,0,0,0,0,0,0,0,0,0,0,0,0,0,0,0,0,0.0024,0.0024,0,0.0032,0.0033,0.0033,0.0051,0.0052,0.0052,0.0052,0.0086,0.0086,0.0087,0,0,0,0,0,0,0,0,0,0,0,0,0,0.0038,0.0037,0.0024,0.0024,0.0024,0.0032,0.0033,0.0033,0.0051,0.0052,0.0052,0.0053,0.0086,0.0086,0.0087,0,0,0,0,0,0,0,0,0,0,0,0,0,0.0038,0.0037,0.0024,0.0034,0.0035,0.0032,0.0033,0.0033,0.0051,0.0052,0.0052,0.0053,0.0085,0.0086,0.0087,0.0081,0,0,0.009,0.009,0,0,0,0,0,0,0,0,0.0038,0.0037,0.0033,0.0034,0.0035,0.0041,0.005,0.005,0.0051,0.0045,0.0052,0.0053,0.0073,0.0075,0.0075,0.0083,0.0084,0.009,0.009,0.009,0.0091,0,0,0,0,0,0,0,0.0038,0.0037,0.0028,0.0033,0.0034,0.0043,0.0044,0.005,0.0057,0.0046,0.0047,0.0048,0.0074,0.0074,0.0076,0.0085,0.009,0.009,0.0091,0.0091,0.0103,0.0103,0,0,0,0,0,0,0.0035,0.0037,0.0027,0.0028,0.0037,0.0042,0.0043,0.0039,0.0056,0.0059,0.0047,0.0048,0.0072,0.0075,0.0077,0.0078,0.009,0.0091,0.0092,0.0103,0.0103,0.0103,0,0,0,0,0,0,0.0035,0.0033,0.0027,0.0033,0.0033,0.0041,0.0037,0.0039,0.0042,0.0057,0.006,0.0049,0.0073,0.0076,0.0082,0.0079,0.0092,0.0092,0.0103,0.0103,0.0103,0.0075,0,0,0,0,0,0,0.0035,0.0033,0.003,0.0032,0.0032,0.002,0.0036,0.0038,0.0041,0.0043,0.0059,0.0062,0.0074,0.008,0.0082,0.0081,0.0093,0.0103,0.0103,0.0103,0.0076,0.0074,0.0072,0,0,0,0,0,0.0035,0.0024,0.003,0.0029,0.0027,0.0019,0.0019,0.0028,0.004,0.0035,0.0049,0.0062,0.008,0.008,0.0083,0.0081,0.0104,0.0103,0.0103,0.0077,0.0074,0.0072,0,0,0,0,0,0,0.003,0.0025,0.0031,0.002,0.0019,0.0022,0.0018,0.0027,0.0033,0.0038,0.0057,0.0061,0.0065,0.0076,0.0076,0.0084,0.0095,0.0095,0.0075,0.0072,0.007,0.0069,0.0094,0,0,0,0,0,0.0026,0.0017,0.0016,0.0008,0.0006,0.0013,0.0013,0.0017,0.0023,0.0027,0.0039,0.0053,0.0064,0.007,0.0078,0.008,0.01,0.0082,0.008,0.0078,0.0079,0.0112,0.0113,0.0101,0.0101,0.0101,0,0,0.0023,0.0019,0.0015,0.0007,0.0007,-0.0009,0.0014,0.0008,0.0001,0.0029,0.0025,0.0043,0.0062,0.0065,0.0068,0.0075,0.009,0.0078,0.0076,0.0078,0.0111,0.0112,0.0114,0.0101,0.0101,0.0101,0,0,0.0001,0.0006,-0.0014,-0.002,-0.0025,-0.0022,-0.0024,-0.0023,-0.0015,-0.0017,0.0005,0.0024,0.0031,0.005,0.006,0.0052,0.0075,0.0052,0.0043,0.0074,0.0075,0.0077,0.0094,0.0097,0.0054,0.0053,0.0053,0,-0.0003,-0.003,-0.002,-0.0044,-0.0053,-0.0031,-0.0056,-0.0047,-0.0042,-0.0032,-0.0024,0.0009,0.0026,0.0044,0.0042,0.0047,0.0064,0.005,0.0071,0.0073,0.0075,0.0093,0.0097,0.0052,0.0052,0.0052,0.0053,0,-0.0044,-0.0066,-0.0079,-0.0102,-0.0107,-0.0125,-0.0115,-0.011,-0.0093,-0.0078,-0.0055,-0.0026,-0.0002,0.0007,0.0021,0.0044,0.005,0.0063,0.0078,0.0075,0.0093,0.0098,0.005,0.0051,0.0051,0.0051,0,0,-0.0052,-0.01,-0.0105,-0.0129,-0.0141,-0.0151,-0.0154,-0.0149,-0.0142,-0.0118,-0.0105,-0.0071,-0.0039,-0.0024,0.0005,0.0036,0.0063,0.0053,0.0056,0.007,0.0122,0.011,0.0115,0.008,0.0081,0.0082,0.0125,0,-0.0089,-0.0152,-0.016,-0.0209,-0.024,-0.0222,-0.0226,-0.0211,-0.0185,-0.0164,-0.0109,-0.0088,-0.0055,-0.0039,-0.0002,0.0049,0.0075,0.0049,0.0123,0.0125,0.0116,0.012,0.0085,0.0129,0.013,0.0131,0.0131,0,-0.0126,-0.0167,-0.0228,-0.0268,-0.0276,-0.0296,-0.0288,-0.0288,-0.0242,-0.0217,-0.0172,-0.013,-0.0075,-0.005,0.0041,0.0023,0.0067,0.0107,0.011,0.0114,0.0123,0.0136,0.014,0.0139,0.0139,0.0138,0.0138,0,-0.0141,-0.0209,-0.026,-0.0278,-0.0316,-0.0327,-0.0333,-0.0302,-0.0295,-0.0246,-0.0228,-0.0156,-0.0119,-0.0046,0.0043,0.0042,0.0139,0.0148,0.0178,0.0177,0.0186,0.0185,0.0205,0.0205,0.0205,0.0204,0.0204,0,-0.0174,-0.0214,-0.0276,-0.0305,-0.0352,-0.0359,-0.0379,-0.0363,-0.0337,-0.0323,-0.0255,-0.0222,-0.0115,-0.0043,0.0033,0.0121,0.0134,0.0177,0.0191,0.0172,0.0168,0.0189,0.0187,0.0206,0.0206,0.0205,0.0205,0,-0.0177,-0.0222,-0.0286,-0.0344,-0.0365,-0.0392,-0.0421,-0.0425,-0.0393,-0.0372,-0.0358,-0.0269,-0.0174,-0.0072,0.0046,0.0103,0.019,0.0215,0.0179,0.019,0.0207,0.0203,0.0249,0.0249,0.0249,0.0249,0.0249,0,-0.0188,-0.0223,-0.0309,-0.0353,-0.0385,-0.043,-0.0456,-0.0452,-0.0451,-0.0395,-0.0382,-0.0295,-0.0226,-0.0065,0.004,0.0173,0.0191,0.023,0.0227,0.0205,0.0214,0.0209,0.0205,0.025,0.025,0.025,0.025,0,-0.0201,-0.0228,-0.0275,-0.036,-0.0414,-0.0477,-0.051,-0.0515,-0.0494,-0.0471,-0.0394,-0.03,-0.0199,-0.007,0.003,0.0129,0.0206,0.0231,0.0232,0.0229,0.0205,0.0213,0.0209,0.025,0.025,0.025,0.025,0,-0.0198,-0.0229,-0.0286,-0.0353,-0.0432,-0.0497,-0.0523,-0.0523,-0.052,-0.0456,-0.0432,-0.0308,-0.0236,-0.0094,0.0005,0.0096,0.0117,0.0146,0.0152,0.0153,0.0113,0.0068,0.0084,0,0,0,0,0,-0.0194,-0.0219,-0.028,-0.0361,-0.0437,-0.048,-0.0543,-0.0558,-0.0542,-0.0494,-0.0461,-0.0362,-0.0203,-0.0127,-0.004,-0.0004,0.0123,0.01,0.0157,0.025,0.025,0.022,0,0,0,0,0,0,-0.0196,-0.024,-0.0263,-0.0343,-0.0396,-0.0479,-0.0524,-0.0527,-0.0499,-0.0467,-0.0385,-0.033,-0.0181,-0.024,-0.0028,-0.0,0.0048,0.0177,0.0179,0.025,0.025,0.025,0.0219,0,0,0,0,0]}]]